Regional Weather Roundup
Issued by NWS

Home | Current Version | Previous Version | Text Only | Print | Product List | Glossary On
Versions: 1 2 3 4 5 6 7 8 9 10 11 12 13 14 15 16 17 18 19 20 21 22 23 24 25 26 27 28 29 30 31 32 33 34 35 36 37 38 39 40 41 42 43 44 45 46 47 48 49 50
532
ASCA42 TJSJ 232110
RWRPR
PUERTO RICO/U.S. VIRGIN ISLANDS HOURLY WEATHER ROUNDUP
NATIONAL WEATHER SERVICE SAN JUAN PR
500 PM AST THU MAR 23 2017

PRZ001>002-007>008-010-232200-
PUERTO RICO

CITY           SKY/WX    TMP DP  RH WIND       PRES   REMARKS
SAN JUAN LMM   LGT RAIN  73  73 100 N5        29.94S FOG
AGUADILLA      PTSUNNY   75  70  83 E3        29.95
CEIBA          LGT RAIN  81  75  83 SE12      29.95S
$$

VIZ001>002-232200-
U.S. VIRGIN ISLANDS

CITY           SKY/WX    TMP DP  RH WIND       PRES   REMARKS
CHARLOTTE AMA  PTSUNNY   81  73  78 SE9       29.93S
CHRISTIANSTED  MOSUNNY   82  72  69 SE7       29.94S
$$

HOURLY WEATHER ROUNDUP FOR THE NEWS MEDIA

CITY           SKY/WX    TMP DP  RH WIND       PRES   REMARKS
ORLANDO        MOSUNNY   73  61  65 NE22G32   30.27R
NEW YORK       MOSUNNY   43   0  16 W14       30.52
NEWARK         MOSUNNY   45  -2  14 W12       30.51F
CHICAGO        CLOUDY    48  24  39 S16G24    30.18F
HARTFORD       SUNNY     39   0  19 W18G26    30.42S WCI  30
BOSTON         MOSUNNY   37   1  22 W21G26    30.42S WCI  26
DALLAS         MOSUNNY   86  50  28 S22G31    29.93F
PHILADELPHIA   MOSUNNY   45   7  21 SW12      30.53F
LOS ANGELES    FAIR      65  44  46 W15       30.13S
WASHINGTON DC  MOSUNNY   48   5  17 VRB7      30.52F



USA.gov is the U.S. government's official web portal to all federal, state and local government web resources and services.